Weather in Troitskaya Sloboda

Russia / Yaroslavl Oblast     56°45′43″N   38°52′25″E
temp.,
°C
wind,
m/s
gust,
m/s
humid.,
%
clouds,
%
prec.,
mm/h
press.,
hPa
HPBL,
m
6 march, sat
sat600:00−13w129333 0.0 101421
03:00−13w239526 0.0 101530
06:00−14w239991 0.1 101549
09:00−12wnw359686 0.1 1015192
12:00−7wnw358895 0.1 1016619
15:00−6nw358197 0.3 1014861
18:00−10w129268 0.1 101421
21:00−12sw239234 0.1 101233
7 march, sun
sun700:00−12ssw479019 0.0 1009150
03:00−9ssw5138654 0.0 1005414
06:00−8ssw61391100 0.2 1000740
09:00−5ssw71392100 1.4 9951036
12:00−3ssw71293100 1.5 9911027
15:00−2ssw51096100 3.8 988757
18:00−6wnw61482100 2.4 9891153
21:00−8w5138297 2.5 992675
8 march, mon
mon800:00−12w499121 0.0 993202
03:00−14wsw369610 0.0 99396
06:00−15w379630 0.0 993142
09:00−11w4109353 0.1 995456
12:00−8nnw5890100 0.3 998861
15:00−8nnw6986100 0.6 1002897
18:00−10nnw4990100 0.1 1005632
21:00−13nnw4109499 0.1 1008397
9 march, tue
tue900:00−17nw369888 0.0 1010129
03:00−20nw3310088 0.1 101381
06:00−22nw3310074 0.0 101483
09:00−21nw369668 0.0 1016288
12:00−17nw358992 0.0 1017506
15:00−16nw468895 0.0 1018579
18:00−19nw3796100 0.0 1019175
21:00−23nw2310094 0.0 102137
10 march, wed
wed1000:00−25nnw239919 0.0 102327
03:00−27nw229936 0.0 102419
06:00−28nw229929 0.0 102519
09:00−24n239515 0.0 1026160
12:00−18nne237910 0.0 1027465
15:00−15n23715 0.0 1026730
18:00−18nw22893 0.0 102621
21:00−22wnw229423 0.0 102720